Regional Weather Roundup
Issued by NWS Raleigh/Durham, NC

Home | Current Version | Previous Version | Text Only | Print | Product List | Glossary On
Versions: 1 2 3 4 5 6 7 8 9 10 11 12 13 14 15 16 17 18 19 20 21 22 23 24 25 26 27 28
000
ASUS42 KRAH 260610
RWRRAH
NORTH CAROLINA WEATHER ROUNDUP
NATIONAL WEATHER SERVICE RALEIGH NC
200 AM EDT SUN OCT 26 2014

NOTE: "FAIR" INDICATES FEW OR NO CLOUDS BELOW 12,000 FEET WITH NO
SIGNIFICANT WEATHER AND/OR OBSTRUCTIONS TO VISIBILITY.

NCZ001-053-055-056-065-067-260700-
WESTERN NORTH CAROLINA

CITY           SKY/WX    TMP DP  RH WIND       PRES   REMARKS
ASHEVILLE      CLEAR     54  47  77 N5        30.03S
JEFFERSON      CLEAR     55  45  68 W14G25    29.96F
MORGANTON      CLEAR     62  51  66 W6        29.99S
HICKORY        CLEAR     60  50  69 W9        29.93F
RUTHERFORDTON  CLEAR     61  49  64 N9        29.96S
MOUNT AIRY     CLEAR     51  47  86 CALM      29.92S
BOONE          PTCLDY    56  47  71 W9G18     29.99
$$

NCZ021-022-025-041-071-084-088-260700-
CENTRAL NORTH CAROLINA

CITY           SKY/WX    TMP DP  RH WIND       PRES   REMARKS
CHARLOTTE      CLEAR     50  43  77 W3        29.93S
GREENSBORO     CLEAR     58  47  66 W12       29.87F
WINSTON-SALEM  CLEAR     57  46  66 W3        29.90S
RALEIGH-DURHAM CLEAR     51  41  68 SW3       29.84F
FORT BRAGG     CLEAR     59  42  53 W7        29.87S
FAYETTEVILLE   CLEAR     56  44  64 W7        29.87S
BURLINGTON     CLEAR     54  43  66 SW5       29.85F
LAURINBURG     CLEAR     48  44  86 W3        29.90R
$$

NCZ011-015-027-028-043-044-047-080-103-260700-
NORTHEASTERN NORTH CAROLINA

CITY           SKY/WX    TMP DP  RH WIND       PRES   REMARKS
ROCKY MT-WILSO CLEAR     58  42  55 SW7       29.82F
GREENVILLE     CLEAR     54  45  71 W6        29.84F
WASHINGTON     CLEAR     54  45  72 SW6       29.81F
ELIZABETH CITY CLEAR     59  46  62 SW10      29.76F
MANTEO         CLEAR     58  50  75 SW9       29.78F
CAPE HATTERAS  CLEAR     61  51  70 W9        29.81F
$$

NCZ078-087-090-091-093-098-101-260700-
SOUTHEASTERN NORTH CAROLINA

CITY           SKY/WX    TMP DP  RH WIND       PRES   REMARKS
LUMBERTON      CLEAR     51  44  77 W5        29.88S
GOLDSBORO      CLEAR     53  49  86 W7        29.82F
KINSTON        CLEAR     55  44  68 SW6       29.84F
KENANSVILLE    CLEAR     54  43  67 SW7       29.87S
NEW BERN       CLEAR     57  44  62 W5        29.85F
CHERRY POINT   CLEAR     53  47  79 SW8       29.85F
BEAUFORT       CLEAR     63  49  60 W8        29.84F
JACKSONVILLE   CLEAR     54  45  71 W8        29.85F
WILMINGTON     CLEAR     55  46  71 W8        29.88F
$$




USA.gov is the U.S. government's official web portal to all federal, state and local government web resources and services.